TimeHST,TemperatureF,Dew PointF,Humidity,Sea Level PressureIn,VisibilityMPH,Wind Direction,Wind SpeedMPH,Gust SpeedMPH,PrecipitationIn,Events,Conditions,WindDirDegrees,DateUTC
12:53 AM,69.1,63.0,81,30.12,10.0,NNE,10.4,-,0.00,Rain,Light Rain,20,2013-02-25 10:53:00
1:08 AM,68.0,62.1,81,30.12,10.0,ENE,13.8,19.6,0.00,Rain,Light Rain,60,2013-02-25 11:08:00
1:53 AM,68.0,63.0,84,30.11,9.0,NNE,5.8,-,0.00,Rain,Light Rain,20,2013-02-25 11:53:00
2:53 AM,66.9,61.0,81,30.09,10.0,WNW,6.9,-,0.00,,Mostly Cloudy,300,2013-02-25 12:53:00
3:09 AM,66.0,62.1,87,30.09,6.0,South,5.8,-,0.04,Rain,Light Rain,180,2013-02-25 13:09:00
3:34 AM,66.0,62.1,87,30.09,1.8,Variable,3.5,-,0.07,Rain,Heavy Rain,0,2013-02-25 13:34:00
3:39 AM,66.0,62.1,87,30.08,4.0,WSW,4.6,-,0.14,Rain,Rain,250,2013-02-25 13:39:00
3:53 AM,64.9,62.1,90,30.08,4.0,SW,5.8,-,0.15,Rain,Light Rain,220,2013-02-25 13:53:00
4:31 AM,66.0,62.1,87,30.08,10.0,WSW,8.1,-,0.08,,Overcast,240,2013-02-25 14:31:00
4:53 AM,64.9,62.1,90,30.08,8.0,WSW,8.1,-,0.08,Rain,Light Rain,250,2013-02-25 14:53:00
5:53 AM,64.9,61.0,87,30.08,10.0,West,4.6,-,0.01,,Mostly Cloudy,260,2013-02-25 15:53:00
6:53 AM,64.0,60.1,87,30.10,10.0,WSW,5.8,-,0.00,,Mostly Cloudy,250,2013-02-25 16:53:00
7:53 AM,66.0,61.0,84,30.12,10.0,WSW,5.8,-,0.00,,Scattered Clouds,250,2013-02-25 17:53:00
8:53 AM,69.1,64.0,84,30.14,10.0,NW,3.5,-,0.01,,Mostly Cloudy,320,2013-02-25 18:53:00
9:01 AM,70.0,64.9,84,30.14,3.0,NW,4.6,-,0.00,Rain,Heavy Rain,320,2013-02-25 19:01:00
9:26 AM,70.0,64.0,81,30.15,8.0,WNW,3.5,-,0.02,Rain,Heavy Rain,300,2013-02-25 19:26:00
9:39 AM,70.0,63.0,78,30.15,10.0,WNW,5.8,-,0.04,,Mostly Cloudy,300,2013-02-25 19:39:00
9:53 AM,71.1,64.0,78,30.15,10.0,NW,9.2,-,0.04,,Mostly Cloudy,320,2013-02-25 19:53:00
10:04 AM,70.0,64.0,81,30.15,7.0,Calm,Calm,-,0.01,Rain,Heavy Rain,0,2013-02-25 20:04:00
10:37 AM,72.0,64.9,78,30.15,5.0,NW,3.5,-,0.06,Rain,Light Rain,310,2013-02-25 20:37:00
10:46 AM,71.1,64.0,78,30.15,2.5,NW,6.9,-,0.06,Rain,Heavy Rain,320,2013-02-25 20:46:00
10:53 AM,71.1,64.9,81,30.15,6.0,NNW,5.8,-,0.10,Rain,Light Rain,330,2013-02-25 20:53:00
11:16 AM,72.0,64.9,78,30.14,10.0,Calm,Calm,-,0.03,Rain,Light Rain,0,2013-02-25 21:16:00
11:53 AM,73.9,66.0,76,30.12,10.0,NNW,8.1,-,0.03,,Scattered Clouds,330,2013-02-25 21:53:00
12:17 PM,70.0,64.9,84,30.12,2.5,NNE,8.1,-,0.00,Rain,Heavy Rain,20,2013-02-25 22:17:00
12:21 PM,70.0,64.9,84,30.12,1.8,North,5.8,17.3,0.04,Rain,Heavy Rain,10,2013-02-25 22:21:00
12:27 PM,70.0,66.0,87,30.11,4.0,North,5.8,-,0.08,Rain,Light Rain,10,2013-02-25 22:27:00
12:48 PM,73.4,66.2,78,30.10,4.0,Variable,3.5,-,0.10,Rain,Light Rain,0,2013-02-25 22:48:00
12:53 PM,73.9,66.9,79,30.10,4.0,NNW,5.8,-,0.10,Rain,Light Rain,340,2013-02-25 22:53:00
1:03 PM,73.0,66.0,79,30.10,10.0,NNE,6.9,-,0.00,,Mostly Cloudy,20,2013-02-25 23:03:00
1:26 PM,75.9,68.0,76,30.09,10.0,NE,8.1,-,0.00,,Overcast,40,2013-02-25 23:26:00
1:53 PM,70.0,66.0,87,30.09,3.0,NNE,8.1,-,0.03,Rain,Light Rain,30,2013-02-25 23:53:00
2:53 PM,71.1,64.9,81,30.07,10.0,WNW,8.1,-,0.04,,Overcast,300,2013-02-26 00:53:00
3:02 PM,71.1,64.9,81,30.07,10.0,WNW,8.1,-,N/A,,Mostly Cloudy,300,2013-02-26 01:02:00
3:22 PM,69.1,64.9,87,30.07,5.0,NE,9.2,-,0.00,Rain,Light Rain,50,2013-02-26 01:22:00
3:42 PM,69.1,64.9,87,30.07,2.5,NNE,4.6,-,0.08,Rain,Light Rain,30,2013-02-26 01:42:00
3:49 PM,69.8,66.2,88,30.07,10.0,NNE,5.8,-,0.09,,Overcast,20,2013-02-26 01:49:00
3:53 PM,71.1,66.0,84,30.06,10.0,NE,4.6,-,0.09,,Overcast,40,2013-02-26 01:53:00
4:53 PM,72.0,66.0,81,30.07,10.0,ENE,9.2,-,N/A,,Overcast,70,2013-02-26 02:53:00
5:53 PM,71.1,64.0,78,30.09,10.0,ENE,11.5,-,0.00,,Partly Cloudy,70,2013-02-26 03:53:00
6:33 PM,71.1,64.0,78,30.10,10.0,ENE,9.2,-,0.00,,Overcast,60,2013-02-26 04:33:00
6:49 PM,69.8,62.6,78,30.11,10.0,ENE,8.1,-,0.01,Rain,Light Rain,60,2013-02-26 04:49:00
6:53 PM,69.1,63.0,81,30.10,10.0,ENE,8.1,-,0.01,Rain,Light Rain,60,2013-02-26 04:53:00
7:45 PM,70.0,64.0,81,30.13,10.0,ENE,8.1,-,0.00,,Mostly Cloudy,70,2013-02-26 05:45:00
7:53 PM,70.0,64.0,81,30.13,10.0,ENE,10.4,-,0.00,,Mostly Cloudy,70,2013-02-26 05:53:00
8:53 PM,69.1,63.0,81,30.15,10.0,Variable,3.5,-,0.00,,Mostly Cloudy,0,2013-02-26 06:53:00
9:19 PM,71.1,63.0,75,30.16,10.0,ENE,10.4,-,N/A,,Mostly Cloudy,60,2013-02-26 07:19:00
9:40 PM,70.0,64.0,81,30.17,10.0,NE,12.7,-,N/A,,Mostly Cloudy,50,2013-02-26 07:40:00
9:53 PM,69.1,63.0,81,30.17,10.0,ENE,10.4,-,0.00,,Mostly Cloudy,60,2013-02-26 07:53:00
10:53 PM,70.0,62.1,76,30.18,10.0,ENE,10.4,-,N/A,,Partly Cloudy,60,2013-02-26 08:53:00
11:24 PM,70.0,61.0,73,30.18,10.0,ENE,9.2,-,N/A,,Mostly Cloudy,60,2013-02-26 09:24:00
11:37 PM,70.0,62.1,76,30.18,10.0,NE,10.4,-,N/A,,Mostly Cloudy,50,2013-02-26 09:37:00
11:53 PM,70.0,61.0,73,30.18,10.0,NE,6.9,-,N/A,,Mostly Cloudy,50,2013-02-26 09:53:00